Regional Weather Roundup
Issued by NWS

Home | Current Version | Previous Version | Graphics & Text | Print | Product List | Glossary On
Versions: 1 2 3 4 5 6 7 8 9 10 11 12 13 14 15 16 17 18 19 20 21 22 23 24 25 26 27 28 29 30 31 32 33 34 35 36 37 38 39 40 41 42 43 44 45 46 47 48 49 50
000
ASUS43 KBIS 291802
RWRND

NORTH DAKOTA REGIONAL WEATHER ROUNDUP
NATIONAL WEATHER SERVICE BISMARCK ND
100 PM CDT FRI MAY 29 2015

NOTE: "FAIR" INDICATES FEW OR NO CLOUDS BELOW 12,000 FEET WITH NO
SIGNIFICANT WEATHER AND/OR OBSTRUCTIONS TO VISIBILITY.


NDZ001>003-009>011-017-291900-
NORTHWEST NORTH DAKOTA

CITY           SKY/WX    TMP DP  RH WIND       PRES   REMARKS
WILLISTON      MOSUNNY   52  32  46 N5G18     30.32F
6HR MIN TEMP:  45; 6HR MAX TEMP:  52;

MINOT          CLOUDY    47  34  60 N15       30.29S
MINOT AFB      CLOUDY    47  39  73 N13       30.29S
$$

NDZ018>021-031>035-040>046-291900-
SOUTHWEST NORTH DAKOTA

CITY           SKY/WX    TMP DP  RH WIND       PRES   REMARKS
BISMARCK       CLOUDY    52  35  52 N17G23    30.26R
6HR MIN TEMP:  48; 6HR MAX TEMP:  53;

DICKINSON      CLOUDY    50  34  54 N15G23    30.28R
GARRISON         N/A     49  32  52 N14G21    30.28S
6HR MIN TEMP:  46; 6HR MAX TEMP:  49;

HETTINGER ARPT PTSUNNY   50  36  58 N16G24    30.28S
$$

NDZ004>008-012>016-024-026-027-054-291900-
NORTHEAST NORTH DAKOTA

CITY           SKY/WX    TMP DP  RH WIND       PRES   REMARKS
GRAND FORKS    CLOUDY    47  37  68 N23G31    30.19R
GRND FRKS AFB  CLOUDY    49  36  61 N25       30.19R
DEVILS LAKE    CLOUDY    48  34  57 N18G25    30.23R
$$

NDZ022-023-025-028>030-036>039-047>053-291900-
SOUTHEAST NORTH DAKOTA

CITY           SKY/WX    TMP DP  RH WIND       PRES   REMARKS
FARGO          CLOUDY    48  41  76 N28G33    30.14R
6HR MIN TEMP:  47; 6HR MAX TEMP:  51;

JAMESTOWN      CLOUDY    51  40  65 N24G32    30.18R
$$




USA.gov is the U.S. government's official web portal to all federal, state and local government web resources and services.